[[{"header":{"parameterUnit":"m.s-1","parameterCategory":1,"la1":30.2991,"la2":30.254,"lo1":-89.0895,"lo2":-89.0444,"dy":0.0017,"dx":0.0017,"nx":28,"ny":28,"refTime":"2023-08-07T21:00:00:Z","depth":0,"parameterNumber":2,"parameterNumberName":"U-component_of_WINDS"},"data":[0,0,0,0,0,0,0,0,0,0,0,0,0,0,0,0,0,0,0,0,0,0,0,0,0,0,0,0,0,0,0,0,0,0,0,0,0,0,0,0,0,0,0,0,0,0,0,0,0,0,0,0,0,0,0,0,0,0,3.7148,3.7148,0,3.7198,3.7198,3.7199,3.714,3.7137,3.7135,3.7133,3.7182,3.7185,3.7189,0,0,0,0,0,0,0,0,0,0,0,0,0,3.6998,3.7001,3.7148,3.7148,3.7149,3.7198,3.7198,3.7199,3.714,3.7137,3.7135,3.7132,3.7181,3.7185,3.7189,0,0,0,0,0,0,0,0,0,0,0,0,0,3.7057,3.7002,3.7148,3.7126,3.7124,3.7197,3.7198,3.7199,3.7141,3.7137,3.7134,3.7131,3.718,3.7185,3.719,3.7287,0,0,3.7205,3.7207,0,0,0,0,0,0,0,0,3.7054,3.7062,3.7128,3.7127,3.7126,3.7159,3.7163,3.7228,3.7141,3.7134,3.7133,3.7129,3.7177,3.7182,3.7199,3.7289,3.7291,3.7205,3.7208,3.7211,3.7212,0,0,0,0,0,0,0,3.705,3.706,3.7167,3.7129,3.7128,3.7112,3.7117,3.7175,3.7173,3.7135,3.713,3.7137,3.7176,3.7194,3.7199,3.7292,3.7205,3.721,3.7213,3.7215,3.746,3.7463,0,0,0,0,0,0,3.7049,3.7057,3.7166,3.7169,3.7081,3.7117,3.7123,3.7152,3.7173,3.7173,3.714,3.7134,3.7187,3.7193,3.7201,3.7312,3.7211,3.7215,3.7218,3.7456,3.7461,3.7464,0,0,0,0,0,0,3.7046,3.7059,3.7164,3.7112,3.7124,3.7123,3.7156,3.7154,3.7172,3.7177,3.7176,3.7159,3.7185,3.7194,3.7265,3.7313,3.7218,3.7222,3.7452,3.7458,3.7463,3.7538,0,0,0,0,0,0,3.7042,3.7058,3.7096,3.7113,3.7127,3.7228,3.716,3.7158,3.7181,3.7174,3.7194,3.7195,3.7183,3.7258,3.727,3.7318,3.7226,3.7448,3.7455,3.7461,3.7531,3.7545,3.7557,0,0,0,0,0,3.7036,3.7116,3.7098,3.7112,3.7174,3.7231,3.7239,3.7224,3.7186,3.7223,3.7225,3.7194,3.7307,3.7265,3.7279,3.7329,3.7445,3.7453,3.746,3.7525,3.7543,3.7557,0,0,0,0,0,0,3.7104,3.7118,3.7098,3.7186,3.7208,3.7221,3.7267,3.7244,3.7277,3.7269,3.7249,3.7253,3.7328,3.7337,3.729,3.7423,3.7369,3.738,3.7414,3.743,3.7443,3.7438,3.723,0,0,0,0,0,3.7129,3.7175,3.7184,3.726,3.7273,3.7268,3.7293,3.7279,3.7301,3.731,3.7318,3.7339,3.7379,3.7406,3.7443,3.7533,3.7535,3.7575,3.7588,3.7598,3.7607,3.7651,3.7668,3.749,3.749,3.749,0,0,3.7181,3.7194,3.7225,3.7274,3.729,3.7336,3.7277,3.7329,3.7362,3.7318,3.7384,3.7391,3.7414,3.7494,3.7529,3.7503,3.7657,3.7608,3.7617,3.7619,3.7661,3.7678,3.7693,3.7496,3.7495,3.7494,0,0,3.7299,3.7315,3.7378,3.7395,3.7419,3.7416,3.7431,3.7448,3.745,3.7518,3.7484,3.7523,3.7594,3.761,3.7627,3.775,3.7721,3.7763,3.783,3.7873,3.7887,3.7899,3.7939,3.7955,3.7772,3.7772,3.7772,0,3.736,3.7429,3.7414,3.7468,3.7489,3.7452,3.7514,3.7531,3.7566,3.7581,3.7551,3.7636,3.7649,3.7731,3.776,3.7777,3.7792,3.7759,3.7887,3.7899,3.791,3.7948,3.7963,3.7777,3.7776,3.7776,3.7776,0,3.7501,3.755,3.7598,3.7632,3.766,3.7718,3.771,3.7739,3.7723,3.7723,3.7789,3.7804,3.7841,3.7861,3.7847,3.794,3.7922,3.789,3.7835,3.7932,3.7967,3.7981,3.7784,3.7782,3.7781,3.7779,0,0,3.7662,3.7686,3.7704,3.7717,3.7741,3.7777,3.7833,3.787,3.7894,3.792,3.7963,3.8023,3.7993,3.8013,3.8,3.8039,3.813,3.8002,3.8002,3.8022,3.823,3.8251,3.8268,3.8113,3.8116,3.8118,3.8226,0,3.7777,3.7873,3.786,3.7951,3.7994,3.7958,3.8006,3.8025,3.8026,3.8061,3.8062,3.8103,3.8062,3.8073,3.8111,3.8112,3.8171,3.8104,3.8151,3.8153,3.8142,3.8287,3.831,3.8411,3.824,3.8243,3.8245,0,3.7923,3.7953,3.8049,3.8063,3.808,3.8124,3.8155,3.819,3.821,3.8208,3.8229,3.8209,3.8262,3.8209,3.8281,3.8235,3.8254,3.8258,3.8261,3.8262,3.8202,3.8288,3.8444,3.8457,3.8267,3.8265,3.8263,0,3.8025,3.809,3.8154,3.8168,3.8187,3.8218,3.8227,3.8244,3.8266,3.8294,3.8307,3.8342,3.8359,3.8385,3.8374,3.8337,3.8446,3.8393,3.8443,3.8443,3.8465,3.8463,3.8622,3.8484,3.8483,3.8483,3.8483,0,3.8152,3.8211,3.82,3.8239,3.8304,3.8288,3.8352,3.8357,3.8372,3.841,3.8383,3.8419,3.8403,3.8438,3.843,3.8488,3.8498,3.8495,3.8492,3.8496,3.8495,3.8505,3.8496,3.8487,3.8486,3.8485,3.8485,0,3.8276,3.8271,3.8339,3.8351,3.8356,3.8402,3.8412,3.8448,3.8447,3.8495,3.8506,3.8503,3.8543,3.8535,3.8579,3.8573,3.8645,3.8635,3.8638,3.8634,3.8683,3.8677,3.8851,3.8871,3.8723,3.8725,3.8726,0,3.8356,3.84,3.8417,3.8441,3.8452,3.8491,3.8513,3.85,3.8524,3.8548,3.8581,3.8618,3.8646,3.8711,3.8712,3.8745,3.8732,3.8791,3.8737,3.8738,3.8728,3.8724,3.8727,3.8801,3.8802,3.8804,3.8805,0,3.8496,3.8491,3.8524,3.8557,3.8584,3.8609,3.8631,3.8652,3.8639,3.8668,3.8708,3.873,3.8774,3.881,3.884,3.8848,3.8823,3.8822,3.8835,3.8837,3.8836,3.8833,3.8663,3.8818,3.8816,3.8815,3.8815,3.8814,3.8597,3.8633,3.865,3.8688,3.8703,3.8724,3.8757,3.8759,3.8793,3.8827,3.8817,3.8862,3.8878,3.8916,3.8928,3.8961,3.8939,3.8958,3.8962,3.8966,3.897,3.8834,3.8967,3.8967,3.8966,3.8966,3.8966,0,3.8732,3.8741,3.8776,3.8807,3.8836,3.8812,3.8835,3.886,3.8899,3.8917,3.8946,3.899,3.9025,3.9029,3.9061,3.9086,3.9076,3.9095,3.9091,3.9092,3.899,3.8974,3.9103,3.9103,3.9103,3.9103,3.9103,3.9103,3.8806,3.8865,3.8862,3.8927,3.8935,3.8979,3.8993,3.9011,3.9025,3.9076,3.9104,3.9107,3.9118,3.9151,3.918,3.9181,3.9192,3.9215,3.921,3.9114,3.91,3.9087,3.9071,3.9218,3.9218,3.9309,3.931,3.931]},{"header":{"parameterUnit":"m.s-1","parameterCategory":1,"la1":30.2991,"la2":30.254,"lo1":-89.0895,"lo2":-89.0444,"dy":0.0017,"dx":0.0017,"nx":28,"ny":28,"refTime":"2023-08-07T21:00:00:Z","depth":0,"parameterNumber":3,"parameterNumberName":"V-component_of_WINDS"},"data":[0,0,0,0,0,0,0,0,0,0,0,0,0,0,0,0,0,0,0,0,0,0,0,0,0,0,0,0,0,0,0,0,0,0,0,0,0,0,0,0,0,0,0,0,0,0,0,0,0,0,0,0,0,0,0,0,0,0,3.9411,3.9412,0,3.9486,3.9487,3.9487,3.9457,3.9456,3.9454,3.9452,3.9524,3.9527,3.953,0,0,0,0,0,0,0,0,0,0,0,0,0,3.9238,3.9241,3.9411,3.9412,3.9413,3.9486,3.9487,3.9488,3.9458,3.9455,3.9453,3.9451,3.9522,3.9527,3.9531,0,0,0,0,0,0,0,0,0,0,0,0,0,3.9313,3.9242,3.9411,3.9407,3.9407,3.9485,3.9487,3.9488,3.9458,3.9455,3.9453,3.945,3.9521,3.9526,3.9531,3.9616,0,0,3.9548,3.955,0,0,0,0,0,0,0,0,3.9308,3.9319,3.9407,3.9407,3.9408,3.946,3.9451,3.9531,3.9459,3.9439,3.9452,3.9449,3.9504,3.9511,3.953,3.962,3.9623,3.9548,3.9551,3.9553,3.9555,0,0,0,0,0,0,0,3.9303,3.9316,3.944,3.9408,3.9409,3.94,3.9407,3.9466,3.9485,3.944,3.9438,3.9448,3.9504,3.9525,3.9532,3.9624,3.9548,3.9553,3.9556,3.9558,3.9784,3.9787,0,0,0,0,0,0,3.9299,3.9311,3.9438,3.9443,3.9351,3.9405,3.9414,3.9446,3.9484,3.9488,3.945,3.9446,3.9517,3.9525,3.9534,3.9635,3.9553,3.9558,3.9561,3.9782,3.9785,3.9788,0,0,0,0,0,0,3.9295,3.931,3.9435,3.9377,3.9392,3.9411,3.9447,3.9448,3.947,3.9492,3.9494,3.9469,3.9516,3.9527,3.9596,3.9637,3.9561,3.9566,3.9778,3.9783,3.9787,3.9838,0,0,0,0,0,0,3.929,3.9309,3.9343,3.9378,3.9395,3.9498,3.9449,3.9452,3.9479,3.9475,3.951,3.9513,3.9514,3.9588,3.9601,3.9643,3.957,3.9775,3.978,3.9785,3.9832,3.9843,3.9852,0,0,0,0,0,3.9284,3.9354,3.9345,3.936,3.9438,3.95,3.951,3.9512,3.9483,3.9516,3.953,3.9512,3.963,3.9596,3.961,3.9654,3.9772,3.9779,3.9785,3.9828,3.9841,3.9852,0,0,0,0,0,0,3.9322,3.9358,3.9349,3.9432,3.9464,3.9495,3.9537,3.9526,3.9565,3.9559,3.9558,3.9566,3.9637,3.9652,3.9613,3.9737,3.9696,3.9706,3.9724,3.9737,3.9747,3.9741,3.9574,0,0,0,0,0,3.934,3.9389,3.9418,3.9488,3.9505,3.9518,3.9545,3.9544,3.9576,3.9588,3.9607,3.9637,3.9681,3.971,3.9751,3.9834,3.984,3.9871,3.9881,3.9889,3.9897,3.994,3.9954,3.9809,3.9809,3.9809,0,0,3.9378,3.9404,3.9435,3.9497,3.9521,3.957,3.953,3.9583,3.9619,3.9596,3.9663,3.9678,3.9711,3.9787,3.9821,3.9802,3.9939,3.9897,3.9904,3.9907,3.9948,3.9962,3.9974,3.9813,3.9813,3.9812,0,0,3.9472,3.9497,3.9558,3.9583,3.9621,3.9629,3.9644,3.9677,3.9686,3.9754,3.9737,3.9778,3.9855,3.9879,3.9901,4.0002,3.9987,4.0016,4.0068,4.011,4.0121,4.0131,4.0166,4.0179,4.0024,4.0024,4.0024,0,3.9514,3.9589,3.9591,3.9646,3.9672,3.9655,3.9716,3.9739,3.9788,3.9806,3.9784,3.9878,3.9899,3.998,4.0005,4.0024,4.0039,4.0012,4.012,4.013,4.0139,4.0172,4.0186,4.0027,4.0027,4.0027,4.0026,0,3.9637,3.9689,3.9734,3.9782,3.9814,3.9872,3.988,3.9912,3.9907,3.9918,3.9985,4.001,4.0056,4.0075,4.0071,4.0155,4.0141,4.012,4.0079,4.0156,4.0187,4.02,4.0032,4.0031,4.003,4.0029,0,0,3.9757,3.9806,3.9822,3.9843,3.9883,3.9922,3.9978,4.0024,4.005,4.0084,4.0129,4.0194,4.0173,4.0198,4.0197,4.0234,4.0311,4.0207,4.0208,4.0224,4.0403,4.0418,4.0433,4.0301,4.0303,4.0305,4.04,0,3.9853,3.9953,3.9956,4.0046,4.0093,4.0076,4.0125,4.0153,4.0164,4.0203,4.0214,4.026,4.023,4.0245,4.0281,4.0294,4.0346,4.0287,4.0341,4.0343,4.0333,4.045,4.0467,4.0554,4.0412,4.0414,4.0416,0,3.9978,4.0017,4.0113,4.0144,4.0164,4.0208,4.0249,4.0288,4.0319,4.0324,4.0352,4.0344,4.0399,4.0357,4.0432,4.0391,4.0413,4.0423,4.0426,4.043,4.0383,4.0456,4.0583,4.0595,4.0435,4.0433,4.0432,0,4.0054,4.013,4.0197,4.0216,4.0255,4.0285,4.0303,4.0331,4.0358,4.0394,4.0411,4.0453,4.0475,4.0506,4.0509,4.0479,4.0583,4.0542,4.0587,4.0587,4.0609,4.0608,4.074,4.0625,4.0625,4.0625,4.0625,0,4.0161,4.0219,4.0232,4.0272,4.0337,4.0339,4.0402,4.0416,4.0442,4.0484,4.0472,4.0511,4.0513,4.0552,4.0555,4.0615,4.0625,4.0629,4.0629,4.063,4.0629,4.0644,4.0637,4.0628,4.0628,4.0627,4.0626,0,4.0256,4.0267,4.0339,4.037,4.0379,4.0425,4.045,4.0488,4.0498,4.0551,4.0563,4.0577,4.0623,4.0629,4.0683,4.0684,4.0756,4.075,4.0746,4.0745,4.0789,4.0784,4.0935,4.0954,4.0828,4.0829,4.083,0,4.0323,4.0368,4.0404,4.0432,4.0451,4.0496,4.0524,4.0527,4.0556,4.0594,4.0627,4.0672,4.0708,4.0781,4.0795,4.0835,4.0829,4.0879,4.0835,4.0834,4.0828,4.0825,4.0829,4.0887,4.0889,4.089,4.0891,0,4.044,4.0443,4.0484,4.0527,4.0561,4.0594,4.0626,4.0649,4.0655,4.0688,4.0736,4.0764,4.0818,4.0862,4.0902,4.0918,4.0905,4.0905,4.0917,4.0918,4.0913,4.0915,4.0768,4.0901,4.09,4.0899,4.0899,4.0898,4.0522,4.056,4.0592,4.0638,4.0662,4.0692,4.0729,4.0743,4.0783,4.0829,4.0827,4.0879,4.0907,4.0959,4.0978,4.1017,4.1,4.1018,4.1023,4.1027,4.1031,4.0908,4.1024,4.1024,4.1023,4.1023,4.1023,0,4.0637,4.0656,4.0698,4.0743,4.0779,4.0766,4.0799,4.083,4.0876,4.0904,4.094,4.0993,4.1036,4.1053,4.1094,4.1122,4.1117,4.1132,4.113,4.1133,4.1044,4.1029,4.1135,4.1135,4.1135,4.1135,4.1135,4.1135,4.0701,4.0765,4.0771,4.0847,4.0865,4.0917,4.0937,4.0963,4.0986,4.1047,4.1082,4.1094,4.1117,4.1159,4.1197,4.1201,4.1216,4.1234,4.1235,4.1151,4.1139,4.1129,4.1114,4.1237,4.1237,4.132,4.1321,4.1322]}]]